Location: Colebrook
(42.0017°N, 73.0973°W)
Time: 04:18:49
(UTC-04:00)

Amateur Radio Satellites - All Passes

Search period start: 02 August 2015 03:48
Search period end: 03 August 2015 03:48
Location: Colebrook, 42.0017°N, 73.0973°W

Satellite Date Start Highest point End Downlink Frequencies (MHz)
Time Altitude Azimuth
MOZHAYETS 4 02 Aug 04:32:12 04:36:51 87° 81° (E) 04:41:32
HORYU 2 02 Aug 04:32:23 04:36:46 48° 99° (E) 04:41:08 437.375
ISS 02 Aug 04:38:48 04:40:57 16° 227° (SW) 04:43:02 145.825
STARS 02 Aug 04:45:04 04:47:23 14° 271° (W) 04:49:30 437.465
Gurwin Techsat 1B 02 Aug 04:45:12 04:49:08 21° 296° (WNW) 04:52:55 435.225
DANDE 02 Aug 04:45:18 04:48:31 81° 97° (E) 04:51:14 436.750
CUBESAT XI-V 02 Aug 04:54:26 04:56:47 14° 64° (ENE) 04:59:20 437.345
CUSAT 1 02 Aug 04:59:12 05:01:42 27° 284° (WNW) 05:04:00 437.405
ITAMSAT 1 02 Aug 05:02:17 05:05:31 16° 298° (WNW) 05:08:35 435.822/435.867
AO-7 02 Aug 05:02:46 05:11:09 76° 106° (ESE) 05:19:28 29.400- 29.500
JAS-2 02 Aug 05:04:09 05:11:40 50° 291° (WNW) 05:19:02 435.910
GONETS M04 02 Aug 05:25:42 05:33:18 37° 87° (E) 05:41:05
STRAND 1 02 Aug 05:46:37 05:49:52 18° 63° (ENE) 05:53:18 437.568
RS-15 02 Aug 05:59:22 06:11:00 64° 50° (NE) 06:23:07 29.354- 29.394
HORYU 2 02 Aug 06:09:59 06:13:03 18° 295° (WNW) 06:15:59 437.375
Cosmos 2499 02 Aug 06:27:58 06:32:34 19° 79° (E) 06:37:48 435.465 / 435.565
CUBESAT XI-V 02 Aug 06:29:05 06:33:45 66° 260° (W) 06:38:25 437.345
CUTE-I 02 Aug 06:35:31 06:40:14 32° 95° (E) 06:44:59 437.470
JAS-2 02 Aug 06:52:51 06:55:08 11° 310° (NW) 06:56:55 435.910
BEESAT 3 02 Aug 06:56:16 06:58:36 15° 40° (NE) 07:01:02 437.485
AO-7 02 Aug 06:56:34 07:03:17 27° 305° (NW) 07:09:44 29.400- 29.500
PRISM 02 Aug 07:07:54 07:12:06 82° 75° (ENE) 07:16:18 437.425
Cubesat XI-IV 02 Aug 07:19:29 07:24:51 82° 102° (ESE) 07:30:11 437.490
GONETS M04 02 Aug 07:21:36 07:30:00 49° 286° (WNW) 07:38:20
STRAND 1 02 Aug 07:23:32 07:28:38 63° 258° (WSW) 07:33:45 437.568
BRITE-PL 02 Aug 07:53:02 07:56:38 24° 94° (E) 08:00:29 437.365/2234.400
BEESAT 2 02 Aug 07:54:50 07:58:39 36° 50° (NE) 08:02:24 435.950
AIST 2 02 Aug 07:58:12 08:00:12 13° 37° (NE) 08:02:18 435.215
GOMX 1 02 Aug 07:58:53 08:01:52 17° 92° (E) 08:05:07 467.674
M-CUBED/EXP-1 PRIME 02 Aug 08:00:40 08:02:26 13° 56° (NE) 08:04:26 437.505
RS-15 02 Aug 08:12:21 08:23:09 41° 251° (WSW) 08:33:59 29.354- 29.394
CUTE-I 02 Aug 08:15:34 08:20:19 33° 293° (WNW) 08:24:59 437.470
Cosmos 2499 02 Aug 08:17:17 08:24:43 81° 279° (W) 08:32:49 435.465 / 435.565
PCSat 02 Aug 08:23:55 08:28:28 29° 110° (ESE) 08:33:07 145.827
AUBIESAT-1 02 Aug 08:27:30 08:30:31 20° 60° (ENE) 08:33:48 437.475
BEESAT 3 02 Aug 08:33:00 08:37:02 70° 239° (WSW) 08:41:00 437.485
COMPASS 1 02 Aug 09:01:08 09:04:23 22° 93° (E) 09:07:41 437.405
Cubesat XI-IV 02 Aug 09:01:25 09:04:20 15° 300° (WNW) 09:07:01 437.490
SEEDS 02 Aug 09:17:30 09:21:34 42° 97° (E) 09:25:36 437.485
DOVE 4 02 Aug 09:18:32 09:23:10 70° 101° (E) 09:28:05 437.250
HO-68 02 Aug 09:19:28 09:26:32 58° 101° (E) 09:33:37 435.675
CINEMA 3 02 Aug 09:19:49 09:24:05 33° 96° (E) 09:28:31 145.822/145.860
UNISAT 6 02 Aug 09:21:17 09:23:34 14° 63° (ENE) 09:26:03 437.425
CUTE 1.7 + AOD 2 02 Aug 09:22:07 09:26:23 60° 100° (E) 09:30:37 437.475
UWE-3 02 Aug 09:26:24 09:28:48 14° 89° (E) 09:31:27 435.000/436.395/437.385
SO-50 02 Aug 09:26:51 09:31:36 79° 122° (ESE) 09:36:32 436.795
CANX-2 02 Aug 09:30:40 09:35:00 84° 102° (ESE) 09:39:17 2200.000
BRITE-PL 02 Aug 09:31:17 09:35:13 32° 289° (WNW) 09:39:21 437.365/2234.400
Oscar 11 02 Aug 09:31:30 09:34:29 18° 91° (E) 09:37:34 145.826/435.025
M-CUBED/EXP-1 PRIME 02 Aug 09:32:31 09:36:34 75° 252° (WSW) 09:41:01 437.505
BEESAT 2 02 Aug 09:33:21 09:36:29 21° 247° (WSW) 09:39:31 435.950
AIST 2 02 Aug 09:35:14 09:39:27 89° 57° (ENE) 09:43:34 435.215
GOMX 1 02 Aug 09:35:52 09:40:15 49° 286° (WNW) 09:44:54 467.674
AAUSAT CUBESAT 2 02 Aug 09:40:56 09:45:02 51° 99° (E) 09:49:07 437.432
CUBEBUG 2 02 Aug 09:43:12 09:47:10 27° 94° (E) 09:51:14 437.445
DUCHIFAT 1 02 Aug 09:52:32 09:53:13 10° 63° (ENE) 09:54:08 145.980
QB50P1 02 Aug 09:55:48 09:57:23 12° 63° (ENE) 09:59:10 145.935-145.965
NANOSAT C BR1 02 Aug 09:56:32 09:58:06 12° 64° (ENE) 09:59:53 145.865
AUBIESAT-1 02 Aug 10:01:01 10:04:54 41° 258° (WSW) 10:09:06 437.475
TIGRISAT 02 Aug 10:02:11 10:06:07 35° 70° (ENE) 10:10:12 435.000
ANTELSAT 02 Aug 10:04:24 10:08:26 39° 71° (ENE) 10:12:37 437.575/2403.000
PCSat 02 Aug 10:06:35 10:11:44 42° 307° (NW) 10:16:53 145.827
Cosmos 2499 02 Aug 10:15:04 10:19:37 16° 304° (WNW) 10:23:53 435.465 / 435.565
ZACube-1 02 Aug 10:34:33 10:39:03 57° 100° (E) 10:43:34 437.345
COMPASS 1 02 Aug 10:36:19 10:40:07 32° 289° (WNW) 10:43:50 437.405
POLYITAN 1 02 Aug 10:37:06 10:40:52 33° 70° (ENE) 10:44:42 437.675
50 SAT 02 Aug 10:41:32 10:42:31 11° 88° (E) 10:43:44 437.505
BUGSAT 1 02 Aug 10:51:29 10:54:56 28° 70° (ENE) 10:58:26 437.445
YUBILEINY 02 Aug 10:52:47 11:00:59 42° 71° (ENE) 11:09:17 435.215
POPSAT HIP 1 02 Aug 10:53:21 10:57:23 49° 73° (ENE) 11:01:29 437.405
DELFI C3 02 Aug 10:53:42 10:57:47 79° 284° (WNW) 11:01:48 145.870
SEEDS 02 Aug 10:54:07 10:57:04 18° 294° (WNW) 10:59:53 437.485
UNISAT 6 02 Aug 10:55:35 10:59:53 59° 260° (W) 11:04:18 437.425
FUNcube-1 02 Aug 10:55:38 11:00:13 89° 283° (WNW) 11:04:48 145.935
CINEMA 3 02 Aug 10:57:12 11:01:11 27° 291° (WNW) 11:05:12 145.822/145.860
DOVE 4 02 Aug 10:58:08 11:00:31 14° 295° (WNW) 11:02:46 437.250
CUTE 1.7 + AOD 2 02 Aug 10:59:38 11:01:51 14° 296° (WNW) 11:03:52 437.475
UWE-3 02 Aug 11:01:12 11:05:45 59° 285° (WNW) 11:10:20 435.000/436.395/437.385
QB50P2 02 Aug 11:01:12 11:05:21 64° 75° (ENE) 11:09:34 145.880/145.840
Oscar 11 02 Aug 11:06:45 11:10:52 40° 288° (WNW) 11:14:56 145.826/435.025
HO-68 02 Aug 11:07:51 11:13:55 30° 299° (WNW) 11:19:50 435.675
UKube-1 02 Aug 11:08:15 11:12:04 30° 96° (E) 11:15:55 .
SO-50 02 Aug 11:09:22 11:12:48 18° 322° (NW) 11:16:11 436.795
HUMSAT D 02 Aug 11:11:15 11:15:32 58° 100° (E) 11:19:49 437.325/437.525
O/OREOS (USA 219) 02 Aug 11:12:37 11:17:12 65° 66° (ENE) 11:21:45 437.305
AAUSAT CUBESAT 2 02 Aug 11:17:49 11:20:15 15° 295° (WNW) 11:22:31 437.432
AISAT 02 Aug 11:18:56 11:22:41 27° 95° (E) 11:26:30 437.250
CUBEBUG 2 02 Aug 11:19:43 11:23:50 31° 290° (WNW) 11:27:59 437.445
DUCHIFAT 1 02 Aug 11:24:18 11:28:28 75° 258° (WSW) 11:32:41 145.980
Cosmos 2491 02 Aug 11:28:16 11:35:39 33° 85° (E) 11:43:14 435.465 / 435.565
QB50P1 02 Aug 11:28:36 11:32:46 64° 259° (W) 11:36:57 145.935-145.965
NANOSAT C BR1 02 Aug 11:29:18 11:33:27 64° 259° (W) 11:37:38 145.865
CUBEBUG 1 02 Aug 11:29:33 11:32:41 20° 93° (E) 11:35:57 437.445
DX 1 02 Aug 11:37:59 11:42:20 73° 103° (ESE) 11:46:40 434.975-435.025
TIGRISAT 02 Aug 11:39:38 11:43:00 21° 268° (W) 11:46:21 435.000
ANTELSAT 02 Aug 11:42:11 11:45:25 19° 269° (W) 11:48:36 437.575/2403.000
VELOX 1 02 Aug 11:57:08 12:01:32 69° 101° (ESE) 12:05:56 145.980
SPROUT 02 Aug 12:01:26 12:03:25 13° 89° (E) 12:05:38 437.525
ZACube-1 02 Aug 12:12:10 12:15:00 16° 295° (WNW) 12:17:39 437.345
50 SAT 02 Aug 12:13:35 12:17:31 57° 286° (WNW) 12:21:24 437.505
POLYITAN 1 02 Aug 12:13:40 12:16:52 21° 267° (W) 12:20:01 437.675
ESTCUBE 1 02 Aug 12:13:54 12:18:24 74° 102° (ESE) 12:22:52 437.505/2401.250
AIST 1 02 Aug 12:18:47 12:23:08 86° 278° (W) 12:27:29
BUGSAT 1 02 Aug 12:27:11 12:30:25 22° 266° (W) 12:33:34 437.445
POPSAT HIP 1 02 Aug 12:31:18 12:33:36 14° 270° (W) 12:35:44 437.405
FUNcube-1 02 Aug 12:35:24 12:35:54 10° 298° (WNW) 12:36:09 145.935
QB50P2 02 Aug 12:40:31 12:41:46 11° 272° (W) 12:42:46 145.880/145.840
UKube-1 02 Aug 12:44:34 12:48:06 24° 292° (WNW) 12:51:33 .
HUMSAT D 02 Aug 12:48:27 12:50:51 14° 295° (WNW) 12:53:03 437.325/437.525
Gurwin Techsat 1B 02 Aug 12:49:40 12:51:46 13° 59° (ENE) 12:54:08 435.225
YUBILEINY 02 Aug 12:49:40 12:57:55 45° 272° (W) 13:06:03 435.215
O/OREOS (USA 219) 02 Aug 12:54:04 12:56:08 13° 260° (W) 12:57:58 437.305
AISAT 02 Aug 12:55:26 12:59:14 28° 291° (WNW) 13:02:58 437.250
ITAMSAT 1 02 Aug 13:03:12 13:05:57 15° 61° (ENE) 13:08:55 435.822/435.867
CUBEBUG 1 02 Aug 13:05:12 13:09:12 36° 289° (WNW) 13:13:09 437.445
Oscar 19 02 Aug 13:15:42 13:20:46 66° 73° (ENE) 13:25:52 437.125/150
DX 1 02 Aug 13:16:26 13:18:03 12° 298° (WNW) 13:19:27 434.975-435.025
BEESAT 02 Aug 13:22:55 13:23:27 10° 86° (E) 13:24:20 436.000
Cosmos 2491 02 Aug 13:23:37 13:32:11 55° 284° (WNW) 13:40:43 435.465 / 435.565
Cosmos 2504 02 Aug 13:29:48 13:37:56 52° 75° (ENE) 13:46:19 435.465 / 435.565
JAS-2 02 Aug 13:34:22 13:38:02 16° 55° (NE) 13:42:12 435.910
VELOX 1 02 Aug 13:35:37 13:37:35 13° 297° (WNW) 13:39:22 145.980
SPROUT 02 Aug 13:35:42 13:39:55 55° 286° (WNW) 13:44:07 437.525
SWISSCUBE 02 Aug 13:41:22 13:44:38 19° 91° (E) 13:48:03 437.505
TISAT 1 02 Aug 13:41:59 13:46:12 77° 285° (WNW) 13:50:25 437.305
CUSAT 1 02 Aug 13:50:45 13:52:17 12° 70° (ENE) 13:54:14 437.405
ESTCUBE 1 02 Aug 13:52:53 13:54:43 12° 298° (WNW) 13:56:21 437.505/2401.250
ITUPSAT 1 02 Aug 14:02:29 14:06:31 27° 95° (E) 14:10:36 437.325
AO-7 02 Aug 14:11:57 14:18:12 25° 54° (NE) 14:24:42 29.400- 29.500
Gurwin Techsat 1B 02 Aug 14:25:43 14:31:02 88° 81° (E) 14:36:25 435.225
ITAMSAT 1 02 Aug 14:39:40 14:44:54 77° 258° (WSW) 14:50:09 435.822/435.867
BEESAT 02 Aug 14:57:13 15:02:01 82° 286° (WNW) 15:06:47 436.000
Oscar 19 02 Aug 14:57:41 15:00:40 15° 271° (W) 15:03:27 437.125/150
JAS-2 02 Aug 15:15:50 15:21:59 84° 75° (ENE) 15:29:02 435.910
SWISSCUBE 02 Aug 15:18:12 15:22:47 47° 289° (WNW) 15:27:19 437.505
DANDE 02 Aug 15:21:08 15:24:56 57° 79° (E) 15:30:00 436.750
Cosmos 2504 02 Aug 15:22:25 15:29:57 36° 274° (W) 15:37:27 435.465 / 435.565
KKS-1 02 Aug 15:26:04 15:30:07 34° 97° (E) 15:34:12 437.445
Cosmos 2491 02 Aug 15:30:05 15:31:43 10° 310° (NW) 15:32:38 435.465 / 435.565
CUSAT 1 02 Aug 15:30:39 15:34:56 71° 260° (W) 15:40:38 437.405
HORYU 2 02 Aug 15:30:51 15:35:06 47° 72° (ENE) 15:39:26 437.375
GONETS M04 02 Aug 15:35:34 15:41:03 18° 59° (ENE) 15:46:58
ITUPSAT 1 02 Aug 15:40:10 15:44:27 32° 291° (WNW) 15:48:38 437.325
AO-7 02 Aug 16:01:49 16:10:12 82° 253° (WSW) 16:18:38 29.400- 29.500
Gurwin Techsat 1B 02 Aug 16:10:05 16:11:52 11° 274° (W) 16:13:18 435.225
SO-50 02 Aug 16:18:48 16:21:40 15° 35° (NE) 16:24:38 436.795
MOZHAYETS 4 02 Aug 16:27:50 16:31:12 20° 91° (E) 16:34:40
STARS 02 Aug 16:31:36 16:36:03 78° 285° (WNW) 16:40:29 437.465
BEESAT 02 Aug 16:38:45 16:39:09 10° 301° (WNW) 16:39:17 436.000
KKS-1 02 Aug 17:03:00 17:06:36 24° 293° (WNW) 17:10:06 437.445
Cubesat XI-IV 02 Aug 17:04:00 17:07:40 20° 63° (ENE) 17:11:29 437.490
JAS-2 02 Aug 17:04:32 17:08:17 15° 277° (W) 17:11:55 435.910
DANDE 02 Aug 17:06:29 17:08:04 11° 266° (W) 17:09:29 436.750
HORYU 2 02 Aug 17:09:06 17:12:03 17° 269° (W) 17:14:51 437.375
PCSat 02 Aug 17:10:49 17:15:26 28° 47° (NE) 17:20:07 145.827
GONETS M04 02 Aug 17:30:42 17:39:29 86° 82° (E) 17:48:15
VERMONT LUNAR 02 Aug 17:49:18 17:51:56 24° 157° (SSE) 17:54:36 437.305
CUTE-I 02 Aug 17:57:34 18:02:47 55° 72° (ENE) 18:08:02 437.470
SO-50 02 Aug 17:58:06 18:03:06 78° 55° (NE) 18:07:57 436.795
AO-7 02 Aug 17:59:24 18:04:26 16° 274° (W) 18:08:55 29.400- 29.500
MOZHAYETS 4 02 Aug 18:04:16 18:08:37 41° 289° (WNW) 18:12:55
Cosmos 2499 02 Aug 18:07:15 18:15:21 41° 71° (ENE) 18:23:40 435.465 / 435.565
CUBESAT XI-V 02 Aug 18:25:44 18:29:44 29° 95° (E) 18:33:45 437.345
Cubesat XI-IV 02 Aug 18:42:03 18:47:21 60° 259° (W) 18:52:40 437.490
PRISM 02 Aug 18:52:36 18:53:13 10° 88° (E) 18:54:05 437.425
PCSat 02 Aug 18:53:54 18:59:05 47° 247° (WSW) 19:04:14 145.827
BRITE-PL 02 Aug 19:05:00 19:08:39 27° 70° (ENE) 19:12:14 437.365/2234.400
GOMX 1 02 Aug 19:08:32 19:11:14 17° 67° (ENE) 19:14:02 467.674
VERMONT LUNAR 02 Aug 19:25:14 19:28:23 61° 172° (S) 19:31:32 437.305
GONETS M04 02 Aug 19:29:28 19:35:21 19° 280° (W) 19:40:46
STRAND 1 02 Aug 19:33:45 19:38:35 42° 98° (E) 19:43:26 437.568
CUTE-I 02 Aug 19:39:24 19:43:17 19° 269° (W) 19:46:59 437.470
SO-50 02 Aug 19:40:36 19:43:03 13° 251° (WSW) 19:45:15 436.795
ISS 02 Aug 19:42:34 19:44:16 14° 132° (SE) 19:46:05 145.825
HO-68 02 Aug 19:48:22 19:55:02 45° 66° (ENE) 20:01:47 435.675
COMPASS 1 02 Aug 19:53:20 19:55:59 17° 66° (ENE) 19:58:46 437.405
Cosmos 2499 02 Aug 20:00:23 20:08:41 48° 271° (W) 20:16:59 435.465 / 435.565
CUBESAT XI-V 02 Aug 20:03:10 20:07:07 28° 291° (WNW) 20:10:59 437.345
PHONESAT 2.4 02 Aug 20:05:45 20:08:59 35° 160° (SSE) 20:12:14 2401.200-2431.200
SEEDS 02 Aug 20:09:55 20:13:39 31° 70° (ENE) 20:17:27 437.485
CUTE 1.7 + AOD 2 02 Aug 20:15:09 20:19:12 44° 73° (ENE) 20:23:19 437.475
CINEMA 3 02 Aug 20:22:40 20:26:12 28° 69° (ENE) 20:29:53 145.822/145.860
CANX-2 02 Aug 20:23:38 20:27:50 61° 75° (ENE) 20:32:06 2200.000
RS-15 02 Aug 20:24:57 20:34:12 35° 107° (ESE) 20:43:59 29.354- 29.394
PRISM 02 Aug 20:25:05 20:29:10 63° 286° (WNW) 20:33:11 437.425
DOVE 4 02 Aug 20:25:05 20:29:12 71° 76° (ENE) 20:33:22 437.250
UWE-3 02 Aug 20:25:24 20:26:51 12° 63° (ENE) 20:28:31 435.000/436.395/437.385
Oscar 11 02 Aug 20:27:19 20:29:54 16° 65° (ENE) 20:32:38 145.826/435.025
AAUSAT CUBESAT 2 02 Aug 20:31:55 20:35:45 36° 71° (ENE) 20:39:38 437.432
CUBEBUG 2 02 Aug 20:42:31 20:45:45 22° 68° (ENE) 20:49:09 437.445
BRITE-PL 02 Aug 20:43:35 20:47:13 25° 266° (W) 20:50:39 437.365/2234.400
GOMX 1 02 Aug 20:45:11 20:49:10 39° 262° (W) 20:53:04 467.674
VERMONT LUNAR 02 Aug 21:01:52 21:04:59 57° 189° (S) 21:08:06 437.305
STRAND 1 02 Aug 21:13:29 21:17:35 24° 295° (WNW) 21:21:34 437.568
ISS 02 Aug 21:17:07 21:20:22 70° 327° (NNW) 21:23:38 145.825
COMPASS 1 02 Aug 21:27:16 21:31:19 44° 262° (W) 21:35:24 437.405
ZACube-1 02 Aug 21:30:59 21:34:58 44° 72° (ENE) 21:39:06 437.345
HO-68 02 Aug 21:36:24 21:42:54 36° 264° (W) 21:49:21 435.675
Cosmos 2491 02 Aug 21:38:21 21:43:11 16° 57° (ENE) 21:48:30 435.465 / 435.565
DELFI C3 02 Aug 21:40:45 21:44:46 64° 75° (ENE) 21:48:49 145.870
AUBIESAT-1 02 Aug 21:42:03 21:44:45 16° 94° (E) 21:47:36 437.475
PHONESAT 2.4 02 Aug 21:43:15 21:46:45 69° 177° (S) 21:50:15 2401.200-2431.200
SEEDS 02 Aug 21:46:04 21:49:29 23° 267° (W) 21:52:50 437.485
FUNcube-1 02 Aug 21:51:39 21:55:50 74° 75° (ENE) 22:00:08 145.935
CUTE 1.7 + AOD 2 02 Aug 21:52:36 21:55:23 16° 270° (W) 21:58:02 437.475
UWE-3 02 Aug 21:58:39 22:02:50 68° 259° (W) 22:07:08 435.000/436.395/437.385
CINEMA 3 02 Aug 22:00:04 22:03:28 23° 267° (W) 22:06:51 145.822/145.860
Oscar 11 02 Aug 22:01:29 22:05:43 50° 261° (W) 22:09:58 145.826/435.025
CANX-2 02 Aug 22:02:34 22:04:15 12° 272° (W) 22:05:42 2200.000
HUMSAT D 02 Aug 22:03:17 22:07:11 41° 72° (ENE) 22:11:11 437.325/437.525
UKube-1 02 Aug 22:03:32 22:07:13 28° 68° (ENE) 22:10:56 .
AAUSAT CUBESAT 2 02 Aug 22:08:23 22:11:29 19° 268° (W) 22:14:29 437.432
AISAT 02 Aug 22:17:13 22:20:52 27° 68° (ENE) 22:24:35 437.250
CUBEBUG 2 02 Aug 22:18:32 22:22:19 32° 265° (W) 22:26:09 437.445
AIST 1 02 Aug 22:26:04 22:29:28 23° 72° (ENE) 22:32:56
CUBEBUG 1 02 Aug 22:26:29 22:29:28 19° 66° (ENE) 22:32:33 437.445
BEESAT 3 02 Aug 22:26:43 22:29:30 18° 112° (ESE) 22:32:25 437.485
DX 1 02 Aug 22:33:43 22:38:01 66° 74° (ENE) 22:42:20 434.975-435.025
RS-15 02 Aug 22:35:02 22:45:55 68° 309° (NW) 22:57:15 29.354- 29.394
VERMONT LUNAR 02 Aug 22:38:53 22:41:23 21° 205° (SSW) 22:43:50 437.305
UNISAT 6 02 Aug 22:47:10 22:51:13 29° 95° (E) 22:55:21 437.425
M-CUBED/EXP-1 PRIME 02 Aug 22:47:27 22:52:18 84° 110° (ESE) 22:56:58 437.505
QB50P2 02 Aug 22:49:17 22:49:30 10° 87° (E) 22:49:59 145.880/145.840
ISS 02 Aug 22:54:49 22:57:15 19° 346° (NNW) 22:59:41 145.825
VELOX 1 02 Aug 22:54:52 22:59:13 64° 74° (ENE) 23:03:36 145.980
SPROUT 02 Aug 22:57:05 22:58:31 12° 63° (ENE) 23:00:11 437.525
50 SAT 02 Aug 22:57:14 23:01:07 80° 77° (ENE) 23:05:04 437.505
ZACube-1 02 Aug 23:08:59 23:11:39 16° 270° (W) 23:14:11 437.345
DUCHIFAT 1 02 Aug 23:09:33 23:12:14 17° 91° (E) 23:15:04 145.980
ESTCUBE 1 02 Aug 23:13:36 23:18:07 71° 75° (ENE) 23:22:39 437.505/2401.250
QB50P1 02 Aug 23:13:57 23:17:01 20° 92° (E) 23:20:13 145.935-145.965
NANOSAT C BR1 02 Aug 23:14:26 23:17:29 19° 92° (E) 23:20:39 145.865
AUBIESAT-1 02 Aug 23:15:11 23:19:53 60° 292° (WNW) 23:24:25 437.475
DELFI C3 02 Aug 23:19:43 23:20:20 10° 273° (W) 23:20:43 145.870
PHONESAT 2.4 02 Aug 23:21:10 23:24:35 50° 194° (SSW) 23:27:59 2401.200-2431.200
BEESAT 2 02 Aug 23:25:52 23:29:54 61° 120° (ESE) 23:33:59 435.950
TIGRISAT 02 Aug 23:29:17 23:34:00 76° 103° (ESE) 23:38:43 435.000
ANTELSAT 02 Aug 23:31:54 23:36:38 84° 101° (ESE) 23:41:21 437.575/2403.000
Cosmos 2491 02 Aug 23:33:07 23:41:53 78° 81° (E) 23:50:36 435.465 / 435.565
AIST 2 02 Aug 23:34:38 23:37:23 17° 111° (ESE) 23:40:15 435.215
UKube-1 02 Aug 23:39:39 23:43:18 26° 265° (W) 23:46:56 .
HUMSAT D 02 Aug 23:40:25 23:43:10 17° 269° (W) 23:45:48 437.325/437.525
AISAT 02 Aug 23:53:31 23:57:23 29° 265° (W) 00:01:11 437.250
YUBILEINY 02 Aug 23:54:11 00:02:16 47° 89° (E) 00:10:32 435.215
POLYITAN 1 02 Aug 23:57:12 00:01:27 61° 100° (E) 00:05:42 437.675
CUBEBUG 1 03 Aug 00:01:25 00:05:33 41° 262° (W) 00:09:40 437.445
BEESAT 3 03 Aug 00:03:16 00:07:10 42° 309° (NW) 00:11:05 437.485
AIST 1 03 Aug 00:03:28 00:07:09 28° 269° (W) 00:10:44
BUGSAT 1 03 Aug 00:07:47 00:11:43 46° 99° (E) 00:15:42 437.445
DX 1 03 Aug 00:13:21 00:14:48 11° 272° (W) 00:15:59 434.975-435.025
POPSAT HIP 1 03 Aug 00:13:29 00:17:47 90° 297° (WNW) 00:22:04 437.405
QB50P2 03 Aug 00:21:41 00:25:57 71° 285° (WNW) 00:30:12 145.880/145.840
UNISAT 6 03 Aug 00:23:50 00:27:58 30° 291° (WNW) 00:32:02 437.425
M-CUBED/EXP-1 PRIME 03 Aug 00:23:58 00:26:25 14° 304° (NW) 00:28:39 437.505
BEESAT 03 Aug 00:28:54 00:31:21 14° 62° (ENE) 00:34:01 436.000
SPROUT 03 Aug 00:29:51 00:34:06 69° 259° (WSW) 00:38:22 437.525
ISS 03 Aug 00:32:29 00:34:35 16° 6° (N) 00:36:41 145.825
TISAT 1 03 Aug 00:34:08 00:38:18 82° 76° (ENE) 00:42:31 437.305
VELOX 1 03 Aug 00:34:30 00:36:17 12° 272° (W) 00:37:48 145.980
DUCHIFAT 1 03 Aug 00:44:15 00:48:17 42° 288° (WNW) 00:52:17 145.980
SWISSCUBE 03 Aug 00:48:16 00:52:01 24° 66° (ENE) 00:55:52 437.505
QB50P1 03 Aug 00:49:06 00:53:02 36° 289° (WNW) 00:56:55 145.935-145.965
NANOSAT C BR1 03 Aug 00:49:32 00:53:27 36° 289° (WNW) 00:57:21 145.865
RS-15 03 Aug 00:51:54 01:01:05 27° 339° (NNW) 01:10:26 29.354- 29.394
ESTCUBE 1 03 Aug 00:54:03 00:55:34 11° 273° (W) 00:56:49 437.505/2401.250
PHONESAT 2.4 03 Aug 00:59:44 01:02:07 17° 209° (SSW) 01:04:27 2401.200-2431.200
BEESAT 2 03 Aug 01:05:33 01:08:21 17° 319° (NW) 01:11:04 435.950
TIGRISAT 03 Aug 01:07:59 01:10:12 13° 297° (WNW) 01:12:11 435.000
ITUPSAT 1 03 Aug 01:09:35 01:13:52 34° 69° (ENE) 01:18:13 437.325
ANTELSAT 03 Aug 01:10:59 01:12:48 12° 298° (WNW) 01:14:23 437.575/2403.000
AIST 2 03 Aug 01:11:29 01:15:37 49° 308° (NW) 01:19:47 435.215
O/OREOS (USA 219) 03 Aug 01:25:07 01:29:33 71° 110° (ESE) 01:34:04 437.305
Oscar 19 03 Aug 01:27:31 01:31:29 22° 92° (E) 01:35:34 437.125/150
Cosmos 2491 03 Aug 01:31:33 01:37:53 22° 279° (W) 01:43:50 435.465 / 435.565
POLYITAN 1 03 Aug 01:34:46 01:36:55 13° 296° (WNW) 01:38:54 437.675
BUGSAT 1 03 Aug 01:44:23 01:46:52 15° 294° (WNW) 01:49:12 437.445
YUBILEINY 03 Aug 01:51:12 01:59:17 40° 289° (WNW) 02:07:19 435.215
STARS 03 Aug 01:56:45 01:57:08 10° 61° (ENE) 01:57:45 437.465
Cosmos 2504 03 Aug 02:01:38 02:07:52 34° 86° (E) 02:14:37 435.465 / 435.565
BEESAT 03 Aug 02:03:54 02:08:40 69° 257° (WSW) 02:13:30 436.000
ISS 03 Aug 02:08:40 02:11:43 36° 26° (NNE) 02:14:46 145.825
KKS-1 03 Aug 02:24:39 02:28:34 33° 70° (ENE) 02:32:34 437.445
SWISSCUBE 03 Aug 02:25:11 02:29:41 39° 263° (W) 02:34:10 437.505
JAS-2 03 Aug 02:26:34 02:30:34 15° 82° (E) 02:35:01 435.910
Gurwin Techsat 1B 03 Aug 02:41:52 02:46:38 34° 96° (E) 02:51:27 435.225
ITUPSAT 1 03 Aug 02:47:43 02:51:49 27° 266° (W) 02:55:50 437.325
ITAMSAT 1 03 Aug 02:52:23 02:57:08 36° 97° (E) 03:01:54 435.822/435.867
Oscar 19 03 Aug 03:06:08 03:11:05 45° 290° (WNW) 03:16:00 437.125/150
O/OREOS (USA 219) 03 Aug 03:07:11 03:09:36 14° 310° (NW) 03:11:51 437.305
RS-15 03 Aug 03:09:47 03:18:37 25° 14° (NNE) 03:27:54 29.354- 29.394
STARS 03 Aug 03:28:36 03:32:58 85° 257° (WSW) 03:37:22 437.465
MOZHAYETS 4 03 Aug 03:30:20 03:33:44 21° 67° (ENE) 03:37:17
